Weather History for Beaver Island, MI

Change the Weather History Date:

Wednesday, November 7, 2012

  Actual Average Record
Temperature  
Mean Temperature 38 °F -  
Max Temperature 44 °F 41 °F 59 °F (1975)
Min Temperature 31 °F 31 °F 15 °F (2002)
Degree Days  
Heating Degree Days 28    
Moisture  
Dew Point 29 °F    
Average Humidity 67    
Maximum Humidity 87    
Minimum Humidity 53    
Precipitation  
Precipitation 0.00 in - - ()
Sea Level Pressure  
Sea Level Pressure 30.11 in    
Wind  
Wind Speed 4 mph (SE)    
Max Wind Speed 10 mph    
Max Gust Speed -    
Visibility 10 miles    
Events      
Averages and records for this station are not official NWS values.
T = Trace of Precipitation, MM = Missing Value Source: NWS Daily Summary

Daily Weather History Graph

Daily Weather History Graph

Search for Another Location

Airport:

Trip Planner

Search our weather history database for the weather conditions in past years. The results will help you decide how hot, cold, wet, or windy it might be!

Date:

Astronomy

Nov. 07, 2012 Rise Set
Actual Time 7:31 AM EST 5:20 PM EST
Civil Twilight 6:59 AM EST 5:51 PM EST
Nautical Twilight 6:24 AM EST 6:27 PM EST
Astronomical Twilight 5:49 AM EST 7:01 PM EST
Moon 12:03 AM EST (11/7) 1:47 PM EST (11/7)
Length of Visible Light 10h 51m
Length of Day
9h 48m
Last Quarter, 43% of the Moon is Illuminated
Nov 7
Last Quarter
Nov 13
New
Nov 20
First Quarter
Nov 28
Full
Dec 6
Last Quarter

Hourly Weather History & Observations

Time (EST) Temp. Windchill Dew Point Humidity Pressure Visibility Wind Dir Wind Speed Gust Speed Precip Events Conditions
12:27 AM 39.2 °F 35.0 °F 30.2 °F 70% 30.00 in 10.0 mi SSE 5.8 mph - N/A   Overcast
1:15 AM 39.2 °F 35.9 °F 30.2 °F 70% 30.00 in 10.0 mi SSE 4.6 mph - N/A   Overcast
1:18 AM 39.2 °F 37.0 °F 30.2 °F 70% 30.00 in 10.0 mi SE 3.5 mph - N/A   Overcast
2:18 AM 39.2 °F 37.0 °F 28.4 °F 65% 30.01 in 10.0 mi SE 3.5 mph - N/A   Overcast
2:38 AM 39.2 °F 35.0 °F 28.4 °F 65% 30.01 in 10.0 mi SE 5.8 mph - N/A   Overcast
3:18 AM 39.2 °F 35.0 °F 32.0 °F 75% - 10.0 mi SE 5.8 mph - N/A   Overcast
3:58 AM 39.2 °F 35.0 °F 28.4 °F 65% 30.02 in 10.0 mi ESE 5.8 mph - N/A   Overcast
5:18 AM 39.2 °F 35.0 °F 30.2 °F 70% 30.04 in 10.0 mi SE 5.8 mph - N/A   Overcast
5:38 AM 39.2 °F 35.9 °F 30.2 °F 70% 30.04 in 10.0 mi SE 4.6 mph - N/A   Overcast
5:58 AM 39.2 °F 35.9 °F 30.2 °F 70% 30.05 in 10.0 mi SE 4.6 mph - N/A   Overcast
6:38 AM 39.2 °F - 30.2 °F 70% 30.06 in 10.0 mi Calm Calm - N/A   Overcast
6:58 AM 39.2 °F 37.0 °F 30.2 °F 70% 30.07 in 10.0 mi ESE 3.5 mph - N/A   Overcast
7:18 AM 39.2 °F 37.0 °F 30.2 °F 70% 30.07 in 10.0 mi ESE 3.5 mph - N/A   Overcast
7:58 AM 39.2 °F 37.0 °F 30.2 °F 70% 30.10 in 10.0 mi ESE 3.5 mph - N/A   Overcast
8:58 AM 39.2 °F 34.2 °F 28.4 °F 65% 30.11 in 10.0 mi SE 6.9 mph - N/A   Overcast
9:18 AM 41.0 °F 36.4 °F 28.4 °F 61% 30.12 in 10.0 mi SE 6.9 mph - N/A   Overcast
9:21 AM 40.6 °F 35.4 °F 29.3 °F 64% 30.12 in 10.0 mi SE 8.1 mph - N/A   Overcast
9:36 AM 40.6 °F 34.3 °F 28.9 °F 63% 30.12 in 10.0 mi SSE 10.4 mph - N/A   Overcast
9:56 AM 41.0 °F 35.2 °F 28.4 °F 61% 30.12 in 10.0 mi SSE 9.2 mph - N/A   Mostly Cloudy
10:17 AM 40.6 °F 34.8 °F 28.2 °F 61% 30.13 in 10.0 mi SSE 9.2 mph - N/A   Overcast
10:36 AM 41.7 °F 37.3 °F 28.9 °F 61% 30.13 in 10.0 mi SSE 6.9 mph - N/A   Overcast
10:56 AM 43.3 °F 38.6 °F 28.6 °F 56% 30.13 in 10.0 mi SSE 8.1 mph - N/A   Scattered Clouds
11:17 AM 41.9 °F 36.3 °F 28.4 °F 59% 30.13 in 10.0 mi SSE 9.2 mph - N/A   Mostly Cloudy
11:36 AM 42.8 °F 37.5 °F 29.1 °F 58% 30.13 in 10.0 mi ESE 9.2 mph - N/A   Overcast
11:56 AM 42.8 °F 39.3 °F 28.4 °F 57% 30.13 in 10.0 mi SE 5.8 mph - N/A   Overcast
12:17 PM 43.2 °F 38.4 °F 28.8 °F 57% 30.12 in 10.0 mi ESE 8.1 mph - N/A   Overcast
12:36 PM 43.7 °F 39.7 °F 28.6 °F 55% 30.12 in 10.0 mi ESE 6.9 mph - N/A   Overcast
12:56 PM 43.0 °F 39.5 °F 28.0 °F 56% 30.11 in 10.0 mi SE 5.8 mph - N/A   Overcast
1:16 PM 43.5 °F - 29.3 °F 57% 30.12 in 10.0 mi Calm Calm - N/A   Overcast
1:36 PM 44.2 °F 41.8 °F 28.6 °F 54% 30.11 in 10.0 mi SE 4.6 mph - N/A   Overcast
1:56 PM 44.1 °F - 28.2 °F 54% 30.11 in 10.0 mi Calm Calm - N/A   Overcast
2:16 PM 44.2 °F 42.7 °F 28.0 °F 53% 30.12 in 10.0 mi ESE 3.5 mph - N/A   Overcast
2:36 PM 43.9 °F - 28.6 °F 55% 30.12 in 10.0 mi Calm Calm - N/A   Overcast
2:57 PM 43.9 °F - 29.7 °F 57% 30.12 in 10.0 mi Calm Calm - N/A   Overcast
3:16 PM 43.2 °F - 29.7 °F 59% 30.11 in 10.0 mi Calm Calm - N/A   Overcast
3:36 PM 44.2 °F 41.0 °F 29.1 °F 55% 30.11 in 10.0 mi East 5.8 mph - N/A   Overcast
3:56 PM 44.4 °F 42.9 °F 28.2 °F 53% 30.11 in 10.0 mi South 3.5 mph - N/A   Scattered Clouds
4:16 PM 44.1 °F - 28.4 °F 54% 30.12 in 10.0 mi Calm Calm - N/A   Scattered Clouds
4:41 PM 42.3 °F - 30.2 °F 62% 30.12 in 10.0 mi Calm Calm - N/A   Overcast
4:56 PM 41.7 °F - 30.0 °F 63% 30.12 in 10.0 mi Calm Calm - N/A   Mostly Cloudy
5:17 PM 40.1 °F - 29.8 °F 67% 30.12 in 10.0 mi Calm Calm - N/A   Scattered Clouds
5:36 PM 36.3 °F - 29.3 °F 76% 30.12 in 10.0 mi Calm Calm - N/A   Clear
5:56 PM 36.1 °F - 30.4 °F 80% 30.12 in 10.0 mi Calm Calm - N/A   Clear
6:17 PM 33.4 °F - 28.2 °F 81% 30.13 in 10.0 mi Calm Calm - N/A   Clear
6:36 PM 31.6 °F - 27.0 °F 83% 30.13 in 10.0 mi Calm Calm - N/A   Clear
6:56 PM 31.5 °F - 27.1 °F 84% 30.14 in 10.0 mi Calm Calm - N/A   Scattered Clouds
7:16 PM 32.0 °F - 28.4 °F 87% 30.14 in 10.0 mi Calm Calm - N/A   Mostly Cloudy
7:36 PM 31.8 °F - 28.2 °F 87% 30.14 in 10.0 mi Calm Calm - N/A   Overcast
7:57 PM 32.2 °F - 28.8 °F 87% 30.14 in 10.0 mi Calm Calm - N/A   Overcast
8:16 PM 33.4 °F - 30.0 °F 87% 30.14 in 10.0 mi Calm Calm - N/A   Overcast
8:36 PM 34.0 °F - 30.4 °F 87% 30.14 in 10.0 mi Calm Calm - N/A   Overcast
9:16 PM 38.3 °F 34.8 °F 32.0 °F 78% 30.13 in 10.0 mi SE 4.6 mph - N/A   Overcast
9:37 PM 39.9 °F 36.7 °F 31.1 °F 71% 30.13 in 10.0 mi SE 4.6 mph - N/A   Overcast
9:56 PM 41.0 °F 39.0 °F 30.9 °F 67% 30.13 in 10.0 mi ESE 3.5 mph - N/A   Overcast
10:16 PM 41.0 °F - 30.6 °F 66% 30.14 in 10.0 mi Calm Calm - N/A   Overcast
10:36 PM 40.6 °F 38.6 °F 30.7 °F 68% 30.14 in 10.0 mi SE 3.5 mph - N/A   Overcast
10:56 PM 41.0 °F - 30.7 °F 67% 30.14 in 10.0 mi Calm Calm - N/A   Overcast
11:16 PM 40.3 °F - 30.9 °F 69% 30.14 in 10.0 mi Calm Calm - N/A   Overcast
11:36 PM 40.8 °F 38.8 °F 31.1 °F 68% 30.13 in 10.0 mi SE 3.5 mph - N/A   Overcast
11:57 PM 41.7 °F 38.8 °F 30.7 °F 65% 30.13 in 10.0 mi SE 4.6 mph - N/A   Overcast